Location: Unspecified
(48.8582°N, 2.2947°E)
Time: 02:20:01
(UTC+02:00)

Daily predictions for brighter satellites

Satellite Brightness Start Highest point End
(mag) Time Altitude Azimuth Time Altitude Azimuth Time Altitude Azimuth
Cosmos 1812 2.6 00:01:55 10° N 00:05:49 78° E 00:07:07 40° SSE
H-2A R/B 2.7 00:03:45 20° S 00:07:22 52° W 00:12:36 10° NNW
Okean 1-7 Rocket 3.9 00:03:31 10° N 00:07:58 53° ENE 00:09:39 33° SE
NOSS 1 (D) 4.5 00:07:04 10° NW 00:10:13 72° SW 00:10:34 62° S
Cosmos 1420 Rocket 4.3 00:08:53 10° SSW 00:14:06 66° WNW 00:19:20 10° NNE
NOSS 3-1 (C) 4.3 00:07:26 10° NW 00:14:38 61° NE 00:21:00 17° ESE
Okean 1 Rocket 3.5 00:13:31 35° SE 00:14:53 47° E 00:19:11 10° NNE
Cosmos 1025 Rocket 4.1 00:12:24 10° N 00:16:25 34° ENE 00:17:51 27° ESE
Cosmos 1486 Rocket 4.3 00:12:23 10° NNW 00:17:41 59° ENE 00:20:13 30° SE
Cosmos 1300 Rocket 3.7 00:16:53 38° SSE 00:18:20 58° E 00:22:43 10° NNE
Cosmos 1633 4.4 00:21:35 19° E 00:21:36 19° E 00:24:19 10° NE
CZ-4B R/B 3.4 00:23:40 16° ENE 00:24:09 16° ENE 00:26:11 10° NNE
Cosmos 1536 4.2 00:24:23 24° E 00:24:43 24° E 00:27:58 10° NE
ASTEX 1 3.3 00:19:51 10° N 00:24:49 89° W 00:27:12 32° S
USA 234 3.1 00:19:28 10° ENE 00:26:02 75° SE 00:32:34 10° SW
Spot 4 4.5 00:24:00 26° SSW 00:26:27 49° W 00:31:11 10° NNW
Terra 2.9 00:24:38 21° SSW 00:27:15 37° W 00:31:40 10° NNW
Cosmos 1400 Rocket 3.9 00:28:27 28° ESE 00:28:50 29° E 00:32:26 10° NNE
Lacrosse 5 3.9 00:37:57 14° E 00:37:57 14° E 00:39:14 10° E
Cosmos 1356 4.3 00:37:53 36° E 00:37:53 36° E 00:41:03 10° NNE
Meteor 1-20 Rocket 4.3 00:37:24 26° SSW 00:40:42 75° WNW 00:46:17 10° N
Cosmos 2369 Rocket 3.6 00:40:59 21° ESE 00:41:39 21° E 00:45:47 10° NE
ISS -0.6 00:46:52 11° ENE 00:46:52 11° ENE 00:46:57 10° ENE
Cosmos 1821 Rocket 4.1 00:42:38 34° SSE 00:45:23 62° E 00:51:33 10° NNE
Okean 1 4.1 00:42:24 10° NNW 00:46:17 44° W 00:47:28 34° SW
AVUM R/B 4.0 00:43:58 10° NW 00:47:21 44° WSW 00:47:28 44° WSW
Cosmos 1302 Rocket 4.2 00:54:21 41° SSE 00:55:44 53° ESE 01:00:53 10° NNE
Cosmos 2123 Rocket 4.1 00:50:27 10° N 00:56:45 69° ENE 00:59:27 35° SSE
CZ-2C R/B 4.0 00:56:57 10° NE 01:00:58 22° E 01:02:03 21° ESE
BREEZE-M DEB (TANK) 2.4 00:58:44 10° W 01:01:23 89° NNE 01:08:44 10° E
SL-8 R/B 3.6 00:58:43 10° W 01:03:33 87° S 01:08:22 10° E
Cosmos 1934 Rocket 3.9 01:01:58 38° SSE 01:04:23 71° E 01:10:26 10° NNE
Okean 2 3.7 01:03:09 10° N 01:07:16 57° ENE 01:07:59 49° ESE
CZ-2C R/B 4.4 01:10:32 20° ESE 01:12:58 29° ENE 01:17:09 10° N
CZ-4C R/B 3.0 01:13:09 72° SSW 01:13:27 80° WSW 01:17:14 10° NNW
Timation 1 Rocket 4.4 01:09:51 25° SW 01:13:31 79° WNW 01:19:34 10° NNE
Cosmos 2278 Rocket 4.2 01:10:29 10° W 01:15:12 26° NW 01:19:58 10° NNE
Cosmos 1833 Rocket 4.0 01:11:05 10° NW 01:15:42 27° WSW 01:17:34 22° SW
Cosmos 1892 Rocket 3.4 01:11:51 10° N 01:16:14 87° E 01:17:02 59° SSE
Landsat 5 3.6 01:18:23 53° SE 01:19:18 72° ENE 01:23:34 10° N
Meteor 2-21 Rocket 4.4 01:16:45 37° SSW 01:19:27 86° W 01:25:42 10° N
Helios 1A Rocket 3.9 01:19:10 10° NNE 01:22:58 33° E 01:23:08 33° ESE
Meteor 1-11 Rocket 3.9 01:20:27 34° SSW 01:23:07 72° WNW 01:28:55 10° N
Meteor 2-16 Rocket 4.4 01:21:17 39° S 01:23:44 85° E 01:29:52 10° N
Meteor 2-4 Rocket 3.6 01:18:26 10° NNW 01:23:50 73° W 01:25:36 43° S
Cosmos 1503 Rocket 3.9 01:19:32 10° NNW 01:24:47 79° WSW 01:26:17 48° S
Cosmos 1315 Rocket 2.6 01:27:39 71° SE 01:27:51 74° E 01:31:48 10° NNE
Gbstr 26 Del rocket 3.2 01:24:05 10° WNW 01:28:11 48° SW 01:28:11 48° SW
H-2A R/B 2.6 01:24:08 10° NNE 01:28:42 72° ESE 01:29:32 57° SSE
Cosmos 2082 Rocket 4.1 01:26:11 10° WNW 01:29:45 17° W 01:31:44 14° WSW
Cosmos 1943 Rocket 3.6 01:29:15 21° ESE 01:30:03 22° E 01:34:11 10° NE
Lacrosse 5 rocket 2.7 01:35:06 24° E 01:35:06 24° E 01:36:52 10° ENE
NOSS 3-1 (A) 4.0 01:26:19 10° NW 01:33:46 76° SW 01:37:56 32° SSE
MOS 1-B Rocket 4.0 01:33:24 39° SSE 01:35:51 90° ENE 01:42:41 10° NNW
Cosmos 1689 Rocket 2.7 01:37:23 56° WNW 01:37:23 56° WNW 01:40:10 10° NNW
ALOS 2 2.9 01:36:16 48° SW 01:36:58 54° W 01:41:17 10° NNW
Cosmos 1602 Rocket 3.9 01:33:11 10° N 01:37:34 55° ENE 01:38:28 46° ESE
Cosmos 1626 Rocket 3.8 01:39:22 10° N 01:43:50 64° ENE 01:44:42 51° SE
Cosmos 1455 Rocket 2.9 01:49:21 64° SSW 01:50:01 88° WNW 01:54:24 10° N
Cosmos 1447 Rocket 4.4 01:47:02 10° N 01:53:12 81° W 01:55:29 42° S
Cosmos 1025 Rocket 4.4 01:50:13 10° NNW 01:53:55 27° W 01:54:44 25° WSW
SeaSat 1 3.3 01:51:13 22° ESE 01:54:06 46° NE 01:58:48 10° NNW
ATLAS 2AS CENTAUR R/B 3.2 01:47:09 10° NW 01:55:21 73° NE 02:02:00 15° SE
Cosmos 1633 3.7 01:55:57 32° W 01:56:26 34° WNW 01:59:52 10° N
CZ-4B R/B 2.7 01:57:25 29° WNW 01:57:25 29° WNW 01:59:39 10° NNW
Cosmos 1346 Rocket 2.5 01:53:06 10° NNW 01:57:03 89° E 01:57:15 80° SSE
Cosmos 2084 Rocket 3.0 01:53:55 10° NW 01:57:49 83° SW 01:57:56 81° S
Cosmos 1833 4.3 01:52:16 10° NNW 01:57:54 70° ENE 02:00:25 34° SE
Cosmos 1515 4.1 01:54:23 10° N 01:58:11 53° ENE 01:58:34 51° E
Cosmos 1818 4.4 01:58:21 32° SE 01:58:58 33° ESE 02:03:50 10° NE
Cosmos 1536 4.1 02:00:09 28° W 02:01:04 31° WNW 02:04:39 10° N
Cosmos 968 Rocket 4.0 01:56:04 10° NNW 02:01:14 53° ENE 02:03:38 29° SE
Cosmos 1400 Rocket 4.4 02:04:06 24° W 02:05:20 28° WNW 02:08:57 10° N
NOSS 3-1 (C) 4.4 01:58:31 10° NW 02:05:34 45° WSW 02:08:21 34° SSW
Cosmos 2100 Rocket 4.1 02:04:33 39° SSE 02:07:00 68° E 02:13:20 10° NNE
USA 234 4.0 02:02:35 10° ENE 02:08:55 54° NNW 02:15:15 10° W
Genesis I 3.2 02:09:14 67° WSW 02:09:43 81° NW 02:13:46 10° NE
Cosmos 2061 Rocket 4.2 02:10:00 38° SSE 02:12:32 69° E 02:18:56 10° NNE
Cosmos 1975 2.7 02:14:50 72° SSE 02:15:11 80° E 02:19:16 10° NNE
CRYOSAT 2 4.5 02:11:48 10° N 02:16:40 66° W 02:17:56 47° SW
Lacrosse 5 1.8 02:17:05 50° SSW 02:18:22 73° SE 02:23:28 10° ENE
GP-B 3.1 02:14:04 10° N 02:18:31 74° W 02:19:18 58° SSW
ISS -2.6 02:19:26 40° NW 02:20:14 53° N 02:23:27 10° ENE
Cosmos 2369 Rocket 2.3 02:22:45 36° SW 02:25:07 70° WNW 02:30:45 10° NNE
Cosmos 1241 Rocket 4.5 02:20:34 10° NW 02:27:04 89° NE 02:30:59 26° SE
Cosmos 2219 3.5 02:21:27 10° NNW 02:27:05 63° ENE 02:30:26 24° SE
Cosmos 1066 Rocket 4.0 02:23:42 10° NNW 02:29:06 89° E 02:30:54 44° SSE
Cosmos 1802 Rocket 4.0 02:26:56 39° S 02:29:23 79° E 02:35:41 10° NNE
Cosmos 2016 Rocket 4.0 02:27:49 38° SSE 02:30:14 68° E 02:36:19 10° NNE
Cosmos 1459 Rocket 3.9 02:30:16 40° SSW 02:32:39 86° W 02:38:47 10° N
Cosmos 1777 Rocket 4.4 02:27:52 10° NNW 02:33:02 59° ENE 02:35:48 27° SE
Cosmos 1992 Rocket 4.0 02:32:20 43° SW 02:34:04 74° WNW 02:39:18 10° NNE
Cosmos 2227 Rocket 4.1 02:29:22 10° NNW 02:34:11 27° NE 02:38:58 10° ESE
Cosmos 2058 Rocket 4.4 02:37:54 25° ESE 02:39:14 30° E 02:43:08 10° NNE
Meteor 1-12 Rocket 4.4 02:39:29 38° SW 02:41:36 63° WNW 02:47:13 10° N
CZ-2C R/B 2.9 02:36:31 10° N 02:41:38 59° WNW 02:43:34 36° SW
PSLV R/B 3.9 02:45:29 57° SW 02:45:57 62° W 02:50:04 10° NNW
SL-8 R/B 3.6 02:41:18 10° W 02:46:01 59° SSW 02:48:35 26° SE
Cosmos 1743 2.8 02:45:46 56° SE 02:46:13 61° E 02:50:03 10° NNE
Cosmos 1953 Rocket 3.6 02:43:27 10° N 02:47:48 73° E 02:48:56 47° SSE
Cosmos 2173 Rocket 4.1 02:46:57 36° SSW 02:49:37 69° WNW 02:55:59 10° N
Cosmos 44 Rocket 3.3 02:45:16 10° NW 02:50:27 81° SW 02:52:31 36° SSE
Cosmos 1842 4.1 02:46:41 10° N 02:50:33 46° ENE 02:51:49 33° SE
CZ-2C R/B 3.5 02:51:36 37° SW 02:52:42 43° W 02:57:24 10° NNW
Cosmos 2297 Rocket 4.1 02:51:20 10° NNW 02:56:12 28° NE 03:01:02 10° ESE
Helios 1A Rocket 4.4 02:54:35 10° N 02:58:09 27° WNW 02:59:28 23° W
Cosmos 1825 Rocket 3.6 02:55:55 10° NNW 03:00:21 64° W 03:01:17 50° SSW
Cosmos 1340 3.1 02:57:28 10° N 03:01:15 55° ENE 03:02:18 40° SE
Cosmos 1726 Rocket 3.6 03:01:53 46° SSE 03:03:00 67° E 03:07:19 10° NNE
Cosmos 1725 Rocket 4.0 03:01:17 34° S 03:04:09 82° E 03:10:21 10° N
Tsikada Rocket 4.0 02:59:35 10° N 03:05:53 82° W 03:09:02 32° S
Cosmos 1656 Rocket 3.8 03:08:39 36° S 03:10:55 63° ESE 03:16:30 10° NNE
Cosmos 1758 Rocket 3.5 03:07:42 10° NNW 03:12:13 76° W 03:13:31 45° S
Lacrosse 5 rocket 2.0 03:10:48 24° W 03:12:38 44° NNW 03:16:10 10° NE
Cosmos 1943 Rocket 2.3 03:10:45 33° SW 03:13:15 68° WNW 03:18:52 10° NNE
NPP 4.5 03:08:45 10° NNE 03:13:51 42° E 03:16:40 24° SSE
SL-16 R/B 4.2 03:11:04 10° ESE 03:16:23 31° ENE 03:21:42 10° N
Gblst 52 Del rocket 4.4 03:13:44 19° WSW 03:18:52 86° SSE 03:24:54 10° ENE
BREEZE-M DEB (TANK) 3.7 03:19:07 36° SSE 03:19:21 36° SSE 03:22:36 10° E
Cosmos 1666 2.8 03:20:22 48° SSE 03:21:16 68° E 03:25:03 10° NNE
Resurs 1-4 Rocket 4.4 03:19:55 10° NE 03:22:59 15° E 03:26:02 10° ESE
SL-08 R/B 3.5 03:21:31 25° SSE 03:24:16 69° ENE 03:28:55 10° N
Cosmos 1570 Rocket 4.3 03:25:06 32° S 03:27:30 61° ESE 03:32:46 10° NNE
BREEZE-M DEB (TANK) 2.5 03:20:21 10° WNW 03:27:56 60° SSW 03:29:34 26° SE
NOSS 3-3 (A) 4.3 03:25:26 30° S 03:28:29 59° ESE 03:35:08 10° NE
NOSS 3-3 (C) 4.3 03:25:32 30° S 03:28:35 58° ESE 03:35:14 10° NE
SeaSat 1 3.2 03:31:00 31° SW 03:31:45 32° WSW 03:36:11 10° NW
Abrixas 2.3 03:32:52 79° SSE 03:32:52 79° SSE 03:35:53 10° E
Cosmos 2098 Rocket 4.4 03:34:54 29° SSW 03:38:35 65° WNW 03:46:07 10° N
Landsat 4 3.7 03:38:41 44° SSW 03:39:44 66° WSW 03:43:35 10° NNW
Cosmos 44 3.3 03:34:58 10° NW 03:40:13 69° SW 03:43:48 19° SSE
Cosmos 1818 4.1 03:38:58 22° WSW 03:42:21 53° NW 03:47:44 10° NNE
ATLAS 2AS CENTAUR R/B 3.6 03:38:47 10° NW 03:45:55 35° WSW 03:49:20 25° SSW
ATLAS CENTAUR R/B 4.1 03:44:13 10° SE 03:46:55 15° ESE 03:49:37 10° ENE
Geosat 4.3 03:42:35 10° NE 03:47:35 57° ESE 03:50:13 27° S
PSLV R/B 4.0 03:44:14 10° N 03:48:30 51° WNW 03:50:22 30° SW
USA 234 4.4 03:45:11 10° ENE 03:51:18 44° N 03:57:25 10° WNW
Meteor 1-15 Rocket 4.3 03:48:04 27° SSW 03:51:22 84° WNW 03:57:18 10° N
ARIANE 5 R/B 3.8 03:50:04 10° NNE 03:54:43 34° E 03:59:00 12° SSE
ISS -2.9 03:53:41 10° WNW 03:56:56 62° NNE 04:00:10 10° E
Meteor 2-5 Rocket 4.0 03:51:39 10° N 03:57:30 73° ENE 04:03:25 10° SSE
Cosmos 2228 3.2 03:58:39 32° SW 04:00:29 59° WNW 04:04:46 10° N
Cosmos 220 Rocket 4.2 03:56:08 10° NNW 04:00:31 70° ENE 04:04:49 10° SSE
Lacrosse 5 3.0 03:56:49 10° W 04:01:40 42° NNW 04:06:31 10° NE
ERS-2 2.5 04:01:02 10° NNE 04:04:44 60° ESE 04:06:41 26° S
Spot 4 Rocket 4.5 04:00:04 10° NNE 04:05:11 57° E 04:09:00 18° S
Cosmos 2082 3.6 04:00:09 10° NNW 04:05:50 86° WSW 04:11:28 10° SSE
Cosmos 1707 3.2 04:02:28 10° N 04:06:23 61° ENE 04:09:41 14° SSE
Cosmos 1464 Rocket 4.2 04:02:16 18° S 04:07:05 74° E 04:13:26 10° NNE
Cosmos 2208 Rocket 4.1 04:06:04 26° SW 04:09:02 70° WNW 04:14:18 10° NNE
Cosmos 2369 Rocket 4.4 04:06:27 10° W 04:10:13 18° NW 04:13:58 10° N
Cosmos 2219 4.4 04:06:23 10° NW 04:10:46 24° WSW 04:12:18 21° SW
USA 161 1.6 04:11:12 25° SSE 04:12:43 76° ENE 04:15:35 10° N
CZ-2D R/B 3.3 04:07:37 10° NNE 04:12:45 39° E 04:17:48 10° SSE
Cosmos 2233 Rocket 4.3 04:09:55 23° SW 04:13:40 51° WNW 04:19:39 10° N
IRS-1C 4.1 04:09:58 10° NNE 04:15:22 89° WNW 04:19:06 20° SSW
Cosmos 2298 Rocket 4.0 04:10:46 10° NNW 04:16:04 77° WSW 04:21:22 10° SSE
IRS-1D 4.2 04:11:31 10° NNE 04:16:18 47° E 04:20:41 12° S
Cosmos 2058 Rocket 4.2 04:15:11 21° WSW 04:17:12 30° WNW 04:21:09 10° N
Cosmos 2227 Rocket 2.2 04:13:05 10° NNW 04:18:45 67° WSW 04:24:21 10° SSE
CBERS-1 4.1 04:13:40 10° N 04:18:48 69° WNW 04:22:10 22° SSW
Cosmos 1980 Rocket 4.5 04:17:06 10° SE 04:20:31 17° E 04:23:58 10° ENE
BREEZE-M DEB (TANK) 2.0 04:19:49 33° SW 04:20:40 47° S 04:23:50 10° E
Cosmos 1812 Rocket 3.6 04:18:53 23° SSW 04:21:40 78° W 04:26:10 10° N
Cosmos 972 Rocket 4.3 04:18:00 10° NNW 04:22:40 44° WSW 04:26:02 19° SSW
AQUA 4.3 04:29:25 10° N 04:34:01 49° WNW 04:37:12 19° SW
Cosmos 2278 3.7 04:32:32 18° SSW 04:36:50 86° ESE 04:42:33 10° NNE
Cosmos 2369 3.8 04:32:47 17° SSW 04:37:11 78° ESE 04:42:53 10° NNE
Cosmos 1513 Rocket 4.4 04:33:43 14° SSW 04:38:58 82° W 04:45:04 10° N
Cosmos 2297 Rocket 2.2 04:35:05 10° NNW 04:40:41 63° WSW 04:46:15 10° SSE
Okean 3 Rocket 3.6 04:39:39 10° NNW 04:44:02 60° W 04:48:04 12° S
NOSS 2-1 (D) 4.0 04:43:02 17° SSW 04:45:57 52° SE 04:50:26 10° NE
SME Rocket 4.3 04:40:34 10° S 04:46:04 65° W 04:54:39 10° NNW
NOSS 2-1 (C) 4.0 04:44:20 16° SSW 04:47:17 52° SE 04:51:48 10° NE
GEOS 3 Rocket 4.0 04:44:31 10° SSE 04:49:26 41° WSW 04:54:20 10° NW
Lacrosse 5 rocket 3.3 04:49:33 10° WNW 04:52:32 23° N 04:55:31 10° NE
Meteor 1-24 Rocket 3.7 04:47:16 10° NNW 04:52:54 73° W 04:58:42 10° S
Cosmos 2150 Rocket 4.4 04:50:12 10° NW 04:55:08 42° WSW 04:59:58 10° S
Cosmos 990 Rocket 4.0 04:51:23 10° NNW 04:56:38 73° WSW 05:01:52 10° SSE
Cosmos 1943 Rocket 4.3 04:54:27 10° WNW 04:58:07 17° NW 05:01:48 10° N
Cosmos 468 Rocket 4.0 04:54:03 14° SSW 04:58:37 82° WNW 05:03:49 10° NNE
SL-16 R/B 2.7 04:53:41 10° S 04:59:44 55° W 05:05:49 10° NNW
Cosmos 405 Rocket 3.9 04:58:37 10° NNW 05:02:08 28° W 05:05:00 13° SW
NOSS 2-1 (E) 3.7 04:58:56 14° SSW 05:02:19 66° SE 05:07:05 10° NE
Resurs 1-4 Rocket 2.1 04:58:12 10° NNE 05:03:32 84° WNW 05:08:47 10° SSW
Cosmos 1766 3.3 04:59:46 10° S 05:03:44 85° E 05:07:43 10° N
Cosmos 2034 Rocket 4.2 05:00:23 11° SSW 05:06:14 58° WNW 05:12:22 10° N
UNK 2.2 05:03:02 10° W 05:07:19 79° N 05:09:29 10° E
Abrixas 2.4 05:05:44 10° W 05:08:47 67° SSW 05:11:51 10° ESE
NOSS 3-4 (A) 3.9 05:02:20 10° NW 05:09:05 57° WSW 05:16:15 10° SSE
NOSS 3-4 (C) 3.9 05:02:25 10° NW 05:09:14 58° WSW 05:16:25 10° SSE
CZ-2D R/B 3.9 05:05:18 10° NNE 05:09:34 65° ESE 05:13:55 10° S
UNKNOWN OBJECT B 2.8 05:07:03 10° NNE 05:11:03 88° ESE 05:14:56 10° SSW
Cosmos 1758 4.2 05:08:19 10° S 05:12:14 51° E 05:16:08 10° NNE
Cosmos 1898 Rocket 4.4 05:07:48 10° NW 05:12:26 31° W 05:17:03 10° SSW
CZ-4B R/B 4.2 05:10:51 10° NNE 05:16:15 47° E 05:21:31 10° S
ADEOS 4.5 05:11:41 10° N 05:16:25 35° WNW 05:21:07 10° SW
Nadezhda 4 Rocket 4.2 05:12:34 10° NNW 05:18:31 51° W 05:24:29 10° SSW
Cosmos 1125 Rocket 3.7 05:13:36 10° NNW 05:18:51 78° ENE 05:24:03 10° SSE
Cosmos 1953 2.8 05:15:13 10° S 05:19:12 63° E 05:23:15 10° NNE
Cosmos 2227 4.4 05:17:44 10° NNW 05:23:34 83° ENE 05:29:20 10° SSE
Okean O Rocket 2.0 05:19:24 10° NNE 05:23:46 63° ESE 05:28:08 10° S
ATLAS CENTAUR R/B 1.9 05:20:17 10° SSW 05:25:21 82° SE 05:30:21 10° NE
Cosmos 1500 Rocket 4.2 05:22:44 10° N 05:27:08 62° ENE 05:31:29 10° SSE
EO 1 Del DPAF 4.3 05:24:14 10° SSW 05:27:37 28° W 05:31:01 10° NW
Cosmos 1461 3.7 05:24:41 10° NNW 05:28:53 56° NE 05:32:52 10° SE
Cosmos 1937 Rocket 4.3 05:24:32 10° NW 05:28:58 30° W 05:33:25 10° SSW
Cosmos 1378 3.9 05:26:51 10° NNW 05:30:20 35° W 05:33:49 10° SSW
Cosmos 1743 Rocket 3.5 05:26:45 10° N 05:31:06 86° W 05:35:27 10° S
Cosmos 841 Rocket 3.6 05:27:18 10° SSW 05:32:35 87° ESE 05:37:55 10° NNE
ISS -2.8 05:30:13 10° WNW 05:33:18 39° SSW 05:36:22 10° SE
USA 234 3.9 05:27:19 10° E 05:33:46 62° NNE 05:40:13 10° NW
ARIANE 5 R/B 3.3 05:29:12 10° N 05:33:52 37° WNW 05:38:34 10° SW
Milstar 3 Cent rocket 4.3 05:32:03 10° SSW 05:35:24 14° SSE 05:39:44 10° SE
Cosmos 1076 Rocket 4.3 05:33:35 10° NNW 05:37:32 34° W 05:41:26 10° SSW
ERS-2 4.3 05:36:03 10° NNW 05:38:06 14° WNW 05:40:08 10° W
Cosmos 1805 3.3 05:35:36 10° S 05:39:31 87° W 05:43:27 10° N
Cosmos 1763 Rocket 3.6 05:36:18 10° SSW 05:41:33 73° WNW 05:46:45 10° NNE
